Vertical_Velocity
0 -3 4 4 -0 -0 1 1 1 -0 2 -1 -1 0 -1 3 -1 -2 3 -8 5 3 -0 -2 -0 2 2 -0 -2 4 4 -10 -5 -0 3 2 3 -1 -3 -2 -1 -1 -2 -1 -0
-2 -3 -1 1 3 0 -0 2 2 -0 -2 -1 -2 1 -0 1 -1 -8 9 -4 -1 4 1 0 -0 1 2 2 -2 -0 -6 -3 0 2 -3 -2 -2 4 -1 -1 -3 -2 -1 -1 0
-0 0 1 2 2 5 0 2 1 2 -2 0 1 0 0 1 1 0 -2 -1 -3 7 -0 0 -0 1 2 2 -1 -2 -17 6 1 2 -0 -3 -1 -3 -1 -4 2 -2 -3 -0 0
1 4 2 -1 -1 -1 -1 -1 4 2 -1 1 1 1 -1 2 -5 4 1 -1 1 3 2 1 -0 -0 4 -0 3 -3 -7 -1 3 2 -1 -3 -2 -7 -2 -5 5 2 -0 -1 1
-1 2 4 -2 3 6 -5 2 0 -0 -4 4 0 0 -1 0 3 1 1 -1 1 5 1 2 1 2 2 -2 1 -3 -2 -2 -1 -3 0 -1 -8 -2 -10 -1 5 2 -0 -3 -1
3 -5 2 5 -1 -2 -1 3 1 -2 1 -1 1 1 -2 1 -3 2 2 -0 2 2 3 2 -1 3 -2 -2 1 -5 -1 -1 -5 -1 -1 -2 -1 15 -7 4 2 1 -0 -2 -3
-0 -3 3 0 1 -1 -0 1 -1 -1 1 1 0 2 1 -3 -3 4 2 0 2 1 2 3 -4 2 0 2 -1 -1 -4 -3 -3 2 -8 1 -4 -18 1 -0 -4 0 1 3 -5
1 0 -0 10 3 3 2 2 1 1 1 -0 1 0 4 -1 -0 2 1 -1 1 1 0 -1 -0 0 0 1 -1 -2 -2 -1 -2 -0 -3 8 -12 2 -2 -0 -2 3 -1 -5 1
2 5 -2 4 13 4 3 2 1 0 0 1 1 -1 7 1 1 2 3 -0 -1 4 0 -1 1 1 2 -2 2 -3 2 -2 0 -1 0 2 0 -4 -1 1 -1 -3 -1 -3 1
0 3 2 -4 -0 10 5 3 3 1 3 -1 -1 1 4 -0 -1 1 1 1 -0 1 -1 1 4 1 -5 -2 -6 1 -0 -0 -1 -3 -1 -3 -4 -7 2 -3 0 -0 -2 -1 -2
1 3 1 15 14 21 25 7 0 -3 -1 1 1 7 2 1 -0 1 1 -0 -0 -1 0 4 2 -10 5 4 3 1 1 -1 -4 -3 -12 -1 -2 -1 -2 -5 -5 -3 -4 -2 -4
1 -3 -1 5 14 26 14 -2 2 3 -0 2 -1 3 1 1 0 -0 -2 1 -1 0 3 1 -6 4 1 -1 1 2 -0 -3 -4 -5 3 -2 -26 -2 -5 -6 -3 -0 -0 -2 -0
-1 7 -1 4 26 12 14 4 -1 1 3 -0 2 3 4 2 -1 -1 1 0 1 3 1 2 3 -2 -1 2 1 -2 2 -1 0 -4 0 -4 -53 -17 -4 -3 -3 -2 -3 -3 -3
-2 2 3 -0 0 25 39 -5 -4 6 1 -1 -4 -7 -2 -2 -7 2 0 4 -0 -0 4 0 -0 -0 4 0 -1 6 -5 1 -1 4 -3 2 -21 -7 -10 -7 -5 -6 -5 -3 -0
-1 -7 0 -1 -0 8 -7 11 3 3 -4 -3 2 -3 2 0 -5 0 4 4 2 -1 -1 3 1 2 1 -1 2 -7 1 0 2 -1 3 7 4 -33 -4 -10 -9 -7 -4 -4 2
1 2 -5 1 -5 -4 40 29 23 -0 -14 -1 -0 2 -1 2 0 -1 1 2 -2 1 -0 -3 2 -4 -3 -0 1 5 -2 -1 -0 6 8 2 1 -63 -6 -11 -2 -0 -3 0 -3
3 -3 -6 5 -2 6 31 28 1 -3 -1 -4 -4 -2 6 -2 4 2 -1 -3 -3 -1 -0 -1 -11 -0 2 6 4 1 3 -1 2 8 -7 -2 11 -67 14 -0 -9 -13 4 3 5
-5 -3 -3 2 -9 11 42 15 -0 1 4 1 -3 1 -1 -0 2 1 1 3 3 2 -1 -1 -6 2 -3 -2 -1 -7 -2 -8 -4 -2 -3 8 -8 -47 -3 -10 -1 -5 5 4 5
-1 1 -3 7 -8 1 28 6 -4 -4 -2 -4 2 3 0 0 0 -0 -2 -1 -1 -0 -7 -1 -8 -1 0 1 0 -6 -4 -0 9 3 10 -8 -14 -49 5 -5 7 -4 -0 -7 -8
1 1 4 1 9 21 43 4 -7 3 2 4 -2 -1 -7 -4 -0 -1 -1 1 -0 -3 2 1 -4 -0 1 5 3 0 3 7 7 2 0 -2 -5 -29 -6 -11 -9 -1 -4 -3 4
3 1 10 8 2 30 6 -2 -4 4 5 -1 -0 -2 2 -6 1 -3 1 1 -0 -2 1 0 1 -1 -1 -9 2 5 -6 1 6 2 0 0 -18 -11 -7 6 4 2 -8 -2 7
8 5 2 13 9 13 7 1 2 3 1 -8 1 4 3 -0 -1 -3 -5 -1 -2 2 -5 -1 2 -4 -12 4 9 3 -3 10 14 -7 -1 4 -62 -19 -6 -5 5 -3 -11 2 8
6 16 14 0 -6 -2 -8 3 2 -3 0 -0 0 0 -1 -1 -2 -1 -4 -0 -0 3 3 4 2 -4 -12 -2 1 -5 -4 7 19 21 -10 2 -25 3 9 9 -13 -16 -11 3 7
-4 19 15 4 -2 -7 -7 -1 -3 5 -3 -3 -4 -1 -0 0 -1 1 -3 1 0 -0 4 5 3 -7 -9 -12 21 5 7 14 10 12 -9 -35 -9 -6 -4 -8 -3 -14 -1 7 6
11 28 7 5 0 -2 -1 6 -5 -11 -7 -1 -2 -1 -1 -2 -2 -3 0 3 -2 4 -1 -3 -6 6 -3 -8 3 -1 2 17 9 -11 -2 -8 -14 5 1 -6 -3 0 6 5 5
9 2 10 4 4 2 4 -1 -4 -4 1 -1 -2 -0 1 -4 -3 -1 1 1 1 4 4 -2 -7 -4 -13 1 6 -1 5 12 0 2 2 3 -27 19 3 3 -0 8 5 5 5
8 -6 8 3 6 4 -6 -3 -12 -2 2 1 3 -0 -5 -3 -0 5 5 1 -1 -3 -4 2 1 3 -13 1 -7 -5 6 5 3 1 1 -5 1 3 2 -0 4 4 2 4 5
Height
3070 3068 3069 3069 3069 3069 3069 3069 3069 3070 3071 3072 3074 3075 3074 3074 3075 3079 3083 3084 3085 3087 3090 3093 3094 3097 3099 3102 3104 3107 3108 3106 3108 3112 3115 3118 3122 3123 3125 3128 3130 3132 3134 3136 3137
3065 3064 3064 3064 3064 3064 3064 3064 3065 3066 3066 3068 3070 3071 3071 3071 3071 3074 3079 3080 3080 3082 3085 3087 3091 3092 3095 3096 3098 3100 3101 3101 3104 3108 3110 3113 3115 3118 3120 3122 3125 3127 3129 3131 3133
3060 3059 3060 3058 3059 3060 3060 3060 3061 3062 3062 3063 3065 3067 3067 3067 3069 3071 3074 3076 3076 3079 3080 3083 3086 3088 3090 3091 3093 3094 3096 3099 3100 3102 3103 3106 3110 3111 3114 3116 3120 3122 3124 3126 3128
3054 3054 3054 3054 3053 3054 3055 3056 3057 3057 3057 3059 3061 3063 3064 3064 3068 3067 3069 3070 3072 3074 3076 3079 3081 3084 3086 3087 3088 3089 3093 3094 3095 3098 3098 3100 3102 3104 3105 3110 3114 3115 3117 3120 3122
3046 3047 3047 3049 3048 3048 3050 3050 3052 3052 3054 3055 3056 3058 3059 3060 3062 3062 3066 3068 3069 3070 3072 3074 3077 3079 3081 3082 3084 3084 3088 3089 3090 3091 3091 3093 3093 3095 3096 3103 3107 3109 3110 3114 3117
3039 3040 3041 3041 3042 3042 3044 3045 3047 3047 3048 3050 3052 3054 3056 3057 3057 3057 3061 3064 3066 3067 3069 3071 3073 3075 3076 3078 3078 3080 3082 3084 3085 3085 3084 3084 3086 3086 3089 3097 3098 3101 3105 3108 3110
3028 3031 3032 3033 3035 3037 3037 3039 3041 3042 3044 3045 3047 3049 3051 3053 3053 3054 3057 3059 3062 3063 3065 3067 3069 3072 3073 3074 3074 3075 3076 3077 3078 3080 3078 3079 3072 3072 3085 3086 3088 3092 3095 3100 3103
3018 3019 3024 3025 3027 3030 3032 3032 3034 3036 3038 3039 3041 3045 3047 3049 3050 3051 3053 3055 3057 3060 3061 3063 3065 3067 3069 3070 3071 3071 3071 3070 3072 3073 3073 3074 3060 3070 3075 3076 3078 3082 3086 3090 3094
3006 3009 3013 3015 3019 3022 3026 3026 3028 3030 3031 3034 3037 3041 3043 3044 3045 3047 3049 3051 3053 3055 3057 3059 3061 3063 3064 3066 3067 3067 3065 3065 3068 3068 3068 3066 3057 3062 3066 3067 3068 3072 3075 3078 3083
2994 2996 3001 3006 3009 3014 3018 3020 3021 3023 3027 3029 3032 3039 3038 3038 3040 3042 3044 3047 3050 3052 3054 3055 3056 3056 3058 3060 3061 3062 3062 3062 3062 3064 3063 3059 3049 3055 3060 3059 3058 3060 3063 3067 3070
2983 2985 2989 2996 2999 3006 3008 3010 3016 3018 3019 3027 3028 3029 3032 3034 3037 3039 3041 3043 3046 3048 3049 3050 3051 3049 3055 3057 3059 3059 3059 3058 3057 3060 3057 3051 3042 3045 3049 3048 3047 3051 3053 3056 3059
2973 2974 2978 2984 2988 2996 2997 2999 3009 3015 3018 3020 3022 3026 3028 3030 3034 3036 3039 3041 3042 3045 3045 3047 3044 3048 3051 3053 3054 3054 3054 3053 3052 3055 3053 3045 3026 3032 3036 3037 3040 3042 3044 3046 3051
2967 2967 2969 2973 2976 2982 2987 2996 3004 3010 3013 3014 3017 3020 3024 3026 3028 3032 3035 3036 3038 3040 3042 3042 3045 3043 3046 3049 3050 3049 3049 3051 3051 3050 3045 3041 3015 3021 3024 3025 3029 3031 3034 3036 3040
2962 2961 2961 2963 2974 2976 2980 2990 2999 3005 3009 3008 3010 3014 3016 3019 3022 3027 3029 3034 3034 3036 3039 3038 3039 3039 3041 3042 3047 3044 3045 3047 3048 3047 3043 3041 3020 3013 3015 3018 3021 3022 3024 3026 3030
2956 2955 2956 2957 2960 2965 2976 2983 2993 3001 3007 3002 3002 3004 3008 3015 3017 3020 3023 3025 3028 3032 3035 3034 3034 3036 3037 3039 3040 3040 3041 3044 3044 3042 3040 3035 3038 2999 3009 3008 3011 3016 3019 3018 3021
2950 2949 2949 2951 2953 2960 2968 2977 2985 2994 2995 2993 2995 3000 3004 3008 3013 3016 3019 3022 3026 3029 3029 3029 3031 3031 3032 3035 3036 3038 3038 3040 3039 3040 3031 3024 3028 2994 2999 2998 3000 3003 3005 3006 3010
2941 2940 2940 2942 2947 2957 2965 2971 2979 2981 2986 2988 2990 2996 3002 3006 3011 3013 3016 3018 3022 3025 3024 3025 3025 3025 3027 3029 3031 3033 3037 3039 3037 3032 3019 3015 3018 2988 2989 2992 2996 2997 2997 3001 3002
2931 2930 2932 2936 2943 2951 2961 2966 2970 2973 2978 2982 2986 2994 2999 3003 3008 3010 3013 3016 3017 3019 3022 3022 3020 3019 3020 3019 3024 3025 3030 3031 3027 3021 3012 3012 2996 2982 2983 2987 2992 2990 2990 2993 2996
2923 2924 2926 2931 2939 2948 2954 2959 2963 2967 2974 2978 2987 2993 2997 3001 3005 3008 3010 3011 3013 3015 3019 3017 3015 3015 3016 3017 3021 3020 3020 3020 3019 3014 3011 2996 2982 2978 2976 2980 2985 2983 2982 2979 2984
2921 2921 2925 2929 2937 2948 2951 2956 2964 2967 2971 2978 2982 2989 2992 2997 3002 3004 3006 3006 3007 3009 3012 3014 3014 3011 3012 3013 3013 3012 3015 3016 3014 3005 2996 2981 2977 2966 2968 2973 2979 2977 2976 2972 2976
2922 2922 2924 2930 2939 2943 2948 2954 2962 2968 2972 2978 2982 2986 2991 2993 2999 3001 3003 3005 3005 3006 3008 3010 3012 3009 3007 3004 3003 3006 3005 3004 3002 2994 2985 2977 2965 2962 2965 2967 2969 2969 2969 2967 2967
2923 2921 2922 2928 2937 2941 2947 2954 2961 2966 2972 2977 2982 2986 2989 2993 2996 2999 3000 3002 3003 3004 3005 3007 3007 3002 2997 2998 2998 2997 2994 2993 2989 2980 2974 2974 2954 2961 2963 2965 2965 2964 2965 2963 2960
2922 2921 2927 2934 2938 2944 2951 2956 2962 2967 2973 2978 2982 2985 2989 2992 2996 2997 2998 2999 2999 3002 3003 3003 3003 3001 2993 2992 2990 2986 2980 2977 2973 2975 2967 2968 2948 2955 2960 2961 2960 2961 2962 2960 2956
2926 2924 2928 2933 2939 2948 2953 2958 2962 2968 2974 2978 2981 2984 2987 2990 2993 2995 2995 2996 2997 2998 2999 3000 2997 2997 2992 2985 2985 2977 2969 2967 2968 2966 2959 2953 2945 2953 2956 2957 2958 2957 2957 2955 2952
2927 2927 2931 2935 2941 2947 2954 2959 2963 2967 2974 2978 2980 2982 2985 2988 2990 2990 2992 2993 2994 2995 2996 2995 2991 2990 2984 2978 2971 2962 2956 2953 2953 2948 2954 2942 2947 2947 2949 2950 2954 2953 2951 2948 2948
2930 2934 2936 2938 2943 2947 2953 2957 2962 2968 2973 2975 2978 2981 2982 2985 2987 2988 2989 2989 2990 2990 2992 2992 2987 2985 2974 2969 2964 2955 2950 2942 2940 2941 2945 2944 2941 2945 2944 2947 2948 2948 2945 2944 2945
2932 2934 2935 2938 2943 2948 2951 2957 2963 2969 2973 2975 2978 2979 2981 2983 2984 2985 2985 2985 2987 2987 2989 2990 2987 2984 2970 2966 2956 2952 2946 2939 2936 2936 2940 2941 2941 2941 2941 2943 2944 2943 2942 2944 2947